Time,TemperatureF,DewpointF,PressureIn,WindDirection,WindDirectionDegrees,WindSpeedMPH,WindSpeedGustMPH,Humidity,HourlyPrecipIn,Conditions,Clouds,dailyrainin,SolarRadiationWatts/m^2,SoftwareType,DateUTC
2013-01-03 00:02:00,61.0,25.0,-100.00,NNW,334,3.0,12.0,25,0.00,,,0.00,328.000000,,2013-01-03 00:02:00,
2013-01-03 00:12:00,61.0,25.0,-100.00,NNW,334,3.0,12.0,25,0.00,,,0.00,328.000000,,2013-01-03 00:12:00,
2013-01-03 00:22:00,61.0,25.0,-100.00,NNW,334,3.0,12.0,25,0.00,,,0.00,328.000000,,2013-01-03 00:22:00,
2013-01-03 00:52:00,57.0,21.0,-100.00,NW,318,3.0,9.0,24,0.00,,,0.00,59.000000,,2013-01-03 00:52:00,
2013-01-03 01:02:00,57.0,21.0,-100.00,NW,318,3.0,9.0,24,0.00,,,0.00,59.000000,,2013-01-03 01:02:00,
2013-01-03 01:12:00,57.0,21.0,-100.00,NW,318,3.0,9.0,24,0.00,,,0.00,59.000000,,2013-01-03 01:12:00,
2013-01-03 01:22:00,57.0,21.0,-100.00,NW,318,3.0,9.0,24,0.00,,,0.00,59.000000,,2013-01-03 01:22:00,
2013-01-03 01:32:00,57.0,21.0,-100.00,NW,318,3.0,9.0,24,0.00,,,0.00,59.000000,,2013-01-03 01:32:00,
2013-01-03 01:52:00,45.0,27.0,-100.00,SW,222,1.0,4.0,50,0.00,,,0.00,4.000000,,2013-01-03 01:52:00,
2013-01-03 02:02:00,45.0,27.0,-100.00,SW,222,1.0,4.0,50,0.00,,,0.00,4.000000,,2013-01-03 02:02:00,
2013-01-03 02:12:00,45.0,27.0,-100.00,SW,222,1.0,4.0,50,0.00,,,0.00,4.000000,,2013-01-03 02:12:00,
2013-01-03 02:22:00,45.0,27.0,-100.00,SW,222,1.0,4.0,50,0.00,,,0.00,4.000000,,2013-01-03 02:22:00,
2013-01-03 02:32:00,45.0,27.0,-100.00,SW,222,1.0,4.0,50,0.00,,,0.00,4.000000,,2013-01-03 02:32:00,
2013-01-03 03:02:00,41.0,27.0,-100.00,NE,49,2.0,4.0,58,0.00,,,0.00,0.000000,,2013-01-03 03:02:00,
2013-01-03 03:12:00,41.0,27.0,-100.00,NE,49,2.0,4.0,58,0.00,,,0.00,0.000000,,2013-01-03 03:12:00,
2013-01-03 03:22:00,41.0,27.0,-100.00,NE,49,2.0,4.0,58,0.00,,,0.00,0.000000,,2013-01-03 03:22:00,
2013-01-03 03:53:00,38.0,27.0,-100.00,NNE,16,1.0,5.0,63,0.00,,,0.00,0.000000,,2013-01-03 03:53:00,
2013-01-03 04:02:00,38.0,27.0,-100.00,NNE,16,1.0,5.0,63,0.00,,,0.00,0.000000,,2013-01-03 04:02:00,
2013-01-03 04:12:00,38.0,27.0,-100.00,NNE,16,1.0,5.0,63,0.00,,,0.00,0.000000,,2013-01-03 04:12:00,
2013-01-03 04:22:00,38.0,27.0,-100.00,NNE,16,1.0,5.0,63,0.00,,,0.00,0.000000,,2013-01-03 04:22:00,
2013-01-03 04:32:00,38.0,27.0,-100.00,NNE,16,1.0,5.0,63,0.00,,,0.00,0.000000,,2013-01-03 04:32:00,
2013-01-03 04:33:00,35.0,27.0,-100.00,NE,51,2.0,3.0,73,0.00,,,0.00,0.000000,,2013-01-03 04:33:00,
2013-01-03 04:52:00,35.0,27.0,-100.00,NE,51,2.0,3.0,73,0.00,,,0.00,0.000000,,2013-01-03 04:52:00,
2013-01-03 05:53:00,34.0,27.0,-100.00,North,5,0.0,3.0,74,0.00,,,0.00,0.000000,,2013-01-03 05:53:00,
2013-01-03 06:02:00,34.0,27.0,-100.00,North,5,0.0,3.0,74,0.00,,,0.00,0.000000,,2013-01-03 06:02:00,
2013-01-03 06:12:00,34.0,27.0,-100.00,North,5,0.0,3.0,74,0.00,,,0.00,0.000000,,2013-01-03 06:12:00,
2013-01-03 06:22:00,34.0,27.0,-100.00,North,5,0.0,3.0,74,0.00,,,0.00,0.000000,,2013-01-03 06:22:00,
2013-01-03 06:32:00,34.0,27.0,-100.00,North,5,0.0,3.0,74,0.00,,,0.00,0.000000,,2013-01-03 06:32:00,
2013-01-03 06:52:00,31.0,26.0,-100.00,NNE,12,0.0,3.0,80,0.00,,,0.00,0.000000,,2013-01-03 06:52:00,
2013-01-03 07:12:00,31.0,26.0,-100.00,NNE,12,0.0,3.0,80,0.00,,,0.00,0.000000,,2013-01-03 07:12:00,
2013-01-03 07:22:00,31.0,26.0,-100.00,NNE,12,0.0,3.0,80,0.00,,,0.00,0.000000,,2013-01-03 07:22:00,
2013-01-03 07:53:00,31.0,26.0,-100.00,NW,315,0.0,2.0,80,-99.99,,,0.00,0.000000,,2013-01-03 07:53:00,
2013-01-03 08:11:00,31.0,26.0,-100.00,NW,315,0.0,2.0,80,-99.99,,,0.00,0.000000,,2013-01-03 08:11:00,
2013-01-03 08:22:00,31.0,26.0,-100.00,NW,315,0.0,2.0,80,-99.99,,,0.00,0.000000,,2013-01-03 08:22:00,
2013-01-03 08:32:00,31.0,26.0,-100.00,NW,315,0.0,2.0,80,-99.99,,,0.00,0.000000,,2013-01-03 08:32:00,
2013-01-03 08:33:00,30.0,25.0,-100.00,NNW,337,0.0,2.0,83,0.00,,,0.00,0.000000,,2013-01-03 08:33:00,
2013-01-03 08:53:00,30.0,25.0,-100.00,NNW,337,0.0,2.0,83,0.00,,,0.00,0.000000,,2013-01-03 08:53:00,
2013-01-03 09:02:00,30.0,25.0,-100.00,NNW,337,0.0,2.0,83,0.00,,,0.00,0.000000,,2013-01-03 09:02:00,
2013-01-03 09:12:00,30.0,25.0,-100.00,NNW,337,0.0,2.0,83,0.00,,,0.00,0.000000,,2013-01-03 09:12:00,
2013-01-03 09:22:00,30.0,25.0,-100.00,NNW,337,0.0,2.0,83,0.00,,,0.00,0.000000,,2013-01-03 09:22:00,
2013-01-03 09:53:00,29.0,24.0,-100.00,ENE,58,1.0,3.0,81,0.00,,,0.00,0.000000,,2013-01-03 09:53:00,
2013-01-03 10:02:00,29.0,24.0,-100.00,ENE,58,1.0,3.0,81,0.00,,,0.00,0.000000,,2013-01-03 10:02:00,
2013-01-03 10:12:00,29.0,24.0,-100.00,ENE,58,1.0,3.0,81,0.00,,,0.00,0.000000,,2013-01-03 10:12:00,
2013-01-03 10:22:00,29.0,24.0,-100.00,ENE,58,1.0,3.0,81,0.00,,,0.00,0.000000,,2013-01-03 10:22:00,
2013-01-03 10:32:00,29.0,24.0,-100.00,ENE,58,1.0,3.0,81,0.00,,,0.00,0.000000,,2013-01-03 10:32:00,
2013-01-03 10:53:00,28.0,24.0,-100.00,NNW,339,1.0,3.0,85,-99.99,,,0.00,0.000000,,2013-01-03 10:53:00,
2013-01-03 11:53:00,27.0,24.0,-100.00,NW,311,0.0,2.0,88,-99.99,,,0.00,0.000000,,2013-01-03 11:53:00,
2013-01-03 12:53:00,27.0,24.0,-100.00,WNW,298,1.0,3.0,88,-99.99,,,0.00,0.000000,,2013-01-03 12:53:00,
2013-01-03 13:02:00,27.0,24.0,-100.00,WNW,298,1.0,3.0,88,-99.99,,,0.00,0.000000,,2013-01-03 13:02:00,
2013-01-03 13:22:00,27.0,24.0,-100.00,WNW,298,1.0,3.0,88,-99.99,,,0.00,0.000000,,2013-01-03 13:22:00,
2013-01-03 13:32:00,27.0,24.0,-100.00,WNW,298,1.0,3.0,88,-99.99,,,0.00,0.000000,,2013-01-03 13:32:00,
2013-01-03 13:53:00,27.0,24.0,-100.00,West,273,2.0,3.0,87,-99.99,,,0.00,0.000000,,2013-01-03 13:53:00,
2013-01-03 14:02:00,27.0,24.0,-100.00,West,273,2.0,3.0,87,-99.99,,,0.00,0.000000,,2013-01-03 14:02:00,
2013-01-03 14:12:00,27.0,24.0,-100.00,West,273,2.0,3.0,87,-99.99,,,0.00,0.000000,,2013-01-03 14:12:00,
2013-01-03 14:22:00,27.0,24.0,-100.00,West,273,2.0,3.0,87,-99.99,,,0.00,0.000000,,2013-01-03 14:22:00,
2013-01-03 14:32:00,27.0,24.0,-100.00,West,273,2.0,3.0,87,-99.99,,,0.00,0.000000,,2013-01-03 14:32:00,
2013-01-03 14:33:00,27.0,24.0,-100.00,NNW,347,1.0,5.0,87,-99.99,,,0.00,0.000000,,2013-01-03 14:33:00,
2013-01-03 14:53:00,27.0,24.0,-100.00,NNW,347,1.0,5.0,87,-99.99,,,0.00,0.000000,,2013-01-03 14:53:00,
2013-01-03 15:02:00,27.0,24.0,-100.00,NNW,347,1.0,5.0,87,-99.99,,,0.00,0.000000,,2013-01-03 15:02:00,
2013-01-03 15:12:00,27.0,24.0,-100.00,NNW,347,1.0,5.0,87,-99.99,,,0.00,0.000000,,2013-01-03 15:12:00,
2013-01-03 15:22:00,27.0,24.0,-100.00,NNW,347,1.0,5.0,87,-99.99,,,0.00,0.000000,,2013-01-03 15:22:00,
2013-01-03 15:53:00,26.0,23.0,-100.00,NNE,14,1.0,3.0,89,-99.99,,,0.00,2.000000,,2013-01-03 15:53:00,
2013-01-03 16:03:00,26.0,23.0,-100.00,NNE,14,1.0,3.0,89,-99.99,,,0.00,2.000000,,2013-01-03 16:03:00,
2013-01-03 16:12:00,26.0,23.0,-100.00,NNE,14,1.0,3.0,89,-99.99,,,0.00,2.000000,,2013-01-03 16:12:00,
2013-01-03 16:22:00,26.0,23.0,-100.00,NNE,14,1.0,3.0,89,-99.99,,,0.00,2.000000,,2013-01-03 16:22:00,
2013-01-03 16:32:00,26.0,23.0,-100.00,NNE,14,1.0,3.0,89,-99.99,,,0.00,2.000000,,2013-01-03 16:32:00,
2013-01-03 16:53:00,28.0,25.0,-100.00,North,11,1.0,3.0,89,-99.99,,,0.00,10.000000,,2013-01-03 16:53:00,
2013-01-03 17:03:00,28.0,25.0,-100.00,North,11,1.0,3.0,89,-99.99,,,0.00,10.000000,,2013-01-03 17:03:00,
2013-01-03 17:12:00,28.0,25.0,-100.00,North,11,1.0,3.0,89,-99.99,,,0.00,10.000000,,2013-01-03 17:12:00,
2013-01-03 17:53:00,30.0,27.0,-100.00,NNE,28,1.0,3.0,89,-99.99,,,0.00,16.000000,,2013-01-03 17:53:00,
2013-01-03 18:03:00,30.0,27.0,-100.00,NNE,28,1.0,3.0,89,-99.99,,,0.00,16.000000,,2013-01-03 18:03:00,
2013-01-03 18:53:00,49.0,34.0,-100.00,South,173,1.0,2.0,57,-99.99,,,0.00,250.000000,,2013-01-03 18:53:00,
2013-01-03 19:03:00,49.0,34.0,-100.00,South,173,1.0,2.0,57,-99.99,,,0.00,250.000000,,2013-01-03 19:03:00,
2013-01-03 19:33:00,60.0,30.0,-100.00,SSE,159,2.0,4.0,32,0.00,,,0.00,456.000000,,2013-01-03 19:33:00,
2013-01-03 19:57:00,60.0,30.0,-100.00,SSE,159,2.0,4.0,32,0.00,,,0.00,456.000000,,2013-01-03 19:57:00,
2013-01-03 20:02:00,60.0,30.0,-100.00,SSE,159,2.0,4.0,32,0.00,,,0.00,456.000000,,2013-01-03 20:02:00,
2013-01-03 20:12:00,60.0,30.0,-100.00,SSE,159,2.0,4.0,32,0.00,,,0.00,456.000000,,2013-01-03 20:12:00,
2013-01-03 20:22:00,60.0,30.0,-100.00,SSE,159,2.0,4.0,32,0.00,,,0.00,456.000000,,2013-01-03 20:22:00,
2013-01-03 20:33:00,66.0,26.0,-100.00,SE,146,4.0,8.0,22,0.00,,,0.00,609.000000,,2013-01-03 20:33:00,
2013-01-03 20:53:00,66.0,26.0,-100.00,SE,146,4.0,8.0,22,0.00,,,0.00,609.000000,,2013-01-03 20:53:00,
2013-01-03 21:02:00,66.0,26.0,-100.00,SE,146,4.0,8.0,22,0.00,,,0.00,609.000000,,2013-01-03 21:02:00,
2013-01-03 21:12:00,66.0,26.0,-100.00,SE,146,4.0,8.0,22,0.00,,,0.00,609.000000,,2013-01-03 21:12:00,
2013-01-03 21:22:00,66.0,26.0,-100.00,SE,146,4.0,8.0,22,0.00,,,0.00,609.000000,,2013-01-03 21:22:00,
2013-01-03 21:53:00,69.0,26.0,-100.00,SSE,157,5.0,8.0,20,0.00,,,0.00,578.000000,,2013-01-03 21:53:00,
2013-01-03 22:02:00,69.0,26.0,-100.00,SSE,157,5.0,8.0,20,0.00,,,0.00,578.000000,,2013-01-03 22:02:00,
2013-01-03 22:12:00,69.0,26.0,-100.00,SSE,157,5.0,8.0,20,0.00,,,0.00,578.000000,,2013-01-03 22:12:00,
2013-01-03 22:22:00,69.0,26.0,-100.00,SSE,157,5.0,8.0,20,0.00,,,0.00,578.000000,,2013-01-03 22:22:00,
2013-01-03 22:32:00,69.0,26.0,-100.00,SSE,157,5.0,8.0,20,0.00,,,0.00,578.000000,,2013-01-03 22:32:00,
2013-01-03 22:52:00,71.0,24.0,-100.00,NW,312,4.0,9.0,17,0.00,,,0.00,486.000000,,2013-01-03 22:52:00,
2013-01-03 23:02:00,71.0,24.0,-100.00,NW,312,4.0,9.0,17,0.00,,,0.00,486.000000,,2013-01-03 23:02:00,
2013-01-03 23:12:00,71.0,24.0,-100.00,NW,312,4.0,9.0,17,0.00,,,0.00,486.000000,,2013-01-03 23:12:00,
2013-01-03 23:22:00,71.0,24.0,-100.00,NW,312,4.0,9.0,17,0.00,,,0.00,486.000000,,2013-01-03 23:22:00,
2013-01-03 23:53:00,69.0,21.0,-100.00,WSW,246,3.0,8.0,16,0.00,,,0.00,333.000000,,2013-01-03 23:53:00,